C/2019 V1 ( Borisov )

Japanese version
Home page
Updated on November 9, 2019

---------------------------------------------------------------------

* Profile

Discovery Date November 2, 2019
Magnitude 19.0 mag
Discoverer G. Borisov (MARGO observatory near Nauchnij, Crimea)

* Orbital Elements

T 2020 July 16.33660 TT                                 Bell                    
q   3.1025877            (2000.0)            P               Q                  
                   Peri.   51.06667     -0.28953458     -0.38586238             
                   Node    83.21144     +0.33930265     -0.89709035             
e   1.0            Incl.   61.90034     +0.89501030     +0.21526526             
From 50 observations 2019 Nov. 1-8.                                             

* Magnitudes Graph

        m1 = 10.5 + 5 log d + 10.0 log r

---------------------------------------------------------------------

The orbital elements are published on M.P.E.C. 2019-V130.
The magnitudes graphs are made with Comet for Windows.

---------------------------------------------------------------------

Copyright(C) Seiichi Yoshida (comet@aerith.net). All rights reserved.